EDT,Max TemperatureF,Mean TemperatureF,Min TemperatureF,Max Dew PointF,MeanDew PointF,Min DewpointF,Max Humidity, Mean Humidity, Min Humidity, Max Sea Level PressureIn, Mean Sea Level PressureIn, Min Sea Level PressureIn, Max VisibilityMiles, Mean VisibilityMiles, Min VisibilityMiles, Max Wind SpeedMPH, Mean Wind SpeedMPH, Max Gust SpeedMPH,PrecipitationIn, CloudCover, Events, WindDirDegrees
2011-10-1,72,66,60,66,64,59,100,93,84,29.76,29.64,29.55,10,7,1,17,7,,0.32,4,Rain,143
2011-10-2,71,65,55,63,59,52,100,83,72,29.92,29.81,29.75,10,10,6,15,7,24,0.00,5,Rain,334
2011-10-3,69,62,55,57,53,47,100,79,49,30.09,30.03,29.92,10,9,5,14,5,,0.23,6,Rain,58
2011-10-4,64,60,55,57,53,48,94,81,56,30.00,29.88,29.80,10,8,2,23,11,33,0.41,5,Rain,288
2011-10-5,64,59,53,55,49,31,94,72,43,30.19,29.94,29.81,10,10,6,28,21,40,0.02,5,Rain,340
2011-10-6,59,52,42,38,32,24,79,47,32,30.32,30.24,30.20,10,10,10,24,15,34,0.00,0,,348
2011-10-7,57,50,43,41,37,33,82,62,42,30.46,30.41,30.32,10,10,10,14,6,18,0.00,0,,22
2011-10-8,68,60,51,58,54,43,90,76,68,30.45,30.39,30.33,10,10,10,18,12,24,0.00,0,,262
2011-10-9,82,70,59,58,55,51,90,65,34,30.32,30.28,30.21,10,10,10,14,10,,0.00,0,,296
2011-10-10,80,70,62,60,57,54,90,71,43,30.20,30.14,30.09,10,10,8,12,9,,0.00,0,,302
2011-10-11,66,59,52,51,50,48,86,71,56,30.23,30.19,30.13,10,10,10,14,11,,0.00,0,,45
2011-10-12,62,57,53,58,53,48,100,83,68,30.21,30.14,30.02,10,9,4,17,9,24,0.31,5,Rain,73
2011-10-13,66,62,59,65,62,57,100,97,93,30.01,29.83,29.76,8,3,0,20,11,28,0.58,8,Fog-Rain-Thunderstorm,140
2011-10-14,66,64,62,66,63,57,100,98,82,29.78,29.61,29.41,10,3,0,24,8,33,0.48,7,Fog-Rain,135
2011-10-15,66,63,60,55,50,47,82,64,50,29.76,29.65,29.49,10,10,9,34,25,43,0.00,1,Rain,235
2011-10-16,64,62,60,53,45,39,72,56,41,29.84,29.80,29.76,10,10,10,28,19,37,0.00,2,Rain,248
2011-10-17,64,60,57,58,52,41,88,73,46,29.81,29.72,29.65,10,9,6,24,18,32,0.10,4,Rain,243
2011-10-18,66,60,55,57,53,48,90,77,54,29.96,29.88,29.80,10,10,9,16,11,,0.00,1,,208
2011-10-19,69,62,57,67,62,55,100,97,90,29.95,29.78,29.59,10,3,0,25,11,36,1.11,8,Fog-Rain,102
2011-10-20,68,64,61,66,62,50,100,88,67,29.74,29.58,29.53,10,5,2,33,19,43,0.35,7,Rain,189
2011-10-21,63,58,55,52,47,44,72,64,55,29.99,29.88,29.76,10,10,9,26,21,33,0.00,5,,244
2011-10-22,61,56,52,47,45,42,77,66,58,30.06,30.02,29.98,10,10,10,17,9,21,0.00,3,,270
2011-10-23,59,52,45,47,42,40,93,69,49,30.15,30.10,30.06,10,10,10,12,6,,0.00,4,,317
2011-10-24,57,50,42,47,43,38,89,74,53,30.16,30.08,29.94,10,10,10,8,3,,0.00,1,,132
2011-10-25,60,55,50,52,40,34,89,58,42,29.96,29.90,29.85,10,10,10,24,13,32,0.02,2,Rain,306
2011-10-26,55,52,50,50,41,33,88,65,50,29.99,29.86,29.75,10,10,10,16,10,25,0.00,6,Rain,43
2011-10-27,55,48,42,54,48,39,97,92,81,29.76,29.65,29.55,10,5,2,34,12,44,0.45,8,Rain,44
2011-10-28,48,44,41,39,32,25,87,66,44,30.25,30.06,29.78,10,10,10,25,18,32,0.00,4,Rain,340
2011-10-29,48,44,39,47,41,28,96,84,53,30.25,29.79,29.42,10,5,2,36,17,53,0.57,8,Rain,50
2011-10-30,48,42,37,47,36,29,93,79,53,30.28,29.73,29.28,10,7,2,47,32,69,0.50,7,Rain,328
2011-10-31,52,44,37,37,31,27,82,60,39,30.42,30.38,30.30,10,10,10,14,8,,0.00,0,,63